Temp
-5 -5 -5 -5 -5 -5 -6 -6 -6 -6 -6 -6 -6 -6 -6 -6 -6 -5 -5 -5 -5 -5 -5 -5 -4 -4 -4 -3 -3 -4 -4 -4 -4 -5 -6 -7 -8 -8 -8 -8 -7 -7 -7 -8 -9 -8 -8
-6 -6 -6 -6 -6 -5 -5 -6 -6 -6 -6 -6 -6 -6 -6 -6 -5 -5 -5 -5 -5 -5 -5 -5 -4 -4 -4 -4 -4 -4 -4 -4 -4 -5 -6 -7 -8 -8 -9 -8 -7 -7 -7 -8 -9 -9 -9
-6 -6 -6 -6 -6 -6 -6 -6 -6 -6 -6 -6 -6 -6 -6 -6 -5 -5 -5 -5 -5 -5 -5 -5 -5 -5 -4 -4 -4 -4 -4 -4 -4 -5 -6 -7 -8 -9 -9 -8 -8 -7 -8 -8 -9 -9 -9
-7 -6 -6 -6 -6 -6 -6 -6 -6 -6 -6 -6 -6 -6 -6 -6 -5 -5 -5 -5 -5 -5 -5 -5 -5 -5 -5 -4 -4 -4 -4 -4 -5 -5 -6 -7 -8 -8 -8 -8 -8 -8 -8 -8 -9 -9 -9
-7 -7 -7 -7 -6 -6 -6 -6 -6 -6 -6 -6 -6 -6 -5 -5 -5 -5 -5 -5 -5 -5 -5 -5 -5 -5 -5 -5 -5 -4 -4 -4 -5 -5 -6 -7 -8 -8 -9 -8 -8 -8 -8 -8 -9 -9 -9
-7 -7 -7 -7 -7 -7 -6 -6 -6 -6 -6 -6 -6 -6 -5 -5 -5 -5 -5 -5 -5 -5 -5 -5 -5 -5 -5 -5 -5 -5 -5 -4 -5 -5 -6 -7 -8 -9 -9 -9 -9 -8 -8 -8 -8 -9 -9
-7 -7 -7 -7 -7 -7 -7 -7 -6 -6 -6 -6 -6 -6 -6 -6 -5 -5 -5 -5 -5 -5 -5 -5 -5 -5 -5 -5 -5 -5 -5 -5 -5 -5 -6 -8 -8 -10 -9 -9 -9 -9 -9 -9 -9 -9 -8
-8 -7 -7 -7 -7 -7 -7 -7 -7 -7 -7 -6 -6 -6 -6 -6 -6 -5 -5 -5 -5 -5 -5 -5 -5 -6 -6 -6 -5 -5 -5 -5 -5 -6 -6 -7 -8 -9 -9 -9 -9 -9 -9 -9 -9 -9 -8
-8 -8 -8 -7 -7 -7 -7 -7 -7 -7 -7 -7 -7 -6 -6 -6 -6 -6 -6 -6 -5 -6 -6 -5 -5 -6 -6 -6 -6 -6 -6 -6 -6 -6 -6 -7 -9 -9 -9 -9 -9 -9 -9 -9 -9 -8 -9
-8 -8 -8 -8 -8 -7 -7 -7 -7 -7 -7 -7 -7 -7 -7 -7 -7 -6 -6 -6 -5 -5 -6 -5 -6 -6 -6 -6 -6 -6 -5 -6 -6 -6 -6 -7 -8 -9 -9 -9 -9 -9 -9 -9 -9 -8 -8
-9 -9 -8 -8 -8 -8 -8 -7 -7 -7 -7 -7 -7 -7 -7 -7 -7 -7 -7 -6 -6 -6 -6 -6 -6 -6 -6 -6 -6 -6 -6 -6 -6 -6 -6 -7 -6 -9 -9 -9 -9 -9 -9 -9 -9 -8 -8
-9 -9 -9 -9 -9 -8 -8 -8 -7 -7 -7 -7 -7 -7 -7 -7 -7 -7 -7 -7 -6 -6 -6 -6 -6 -6 -6 -6 -6 -6 -6 -6 -6 -6 -6 -7 -7 -8 -9 -9 -9 -9 -9 -9 -9 -8 -8
-10 -9 -9 -9 -9 -9 -9 -8 -8 -8 -8 -7 -8 -8 -8 -8 -7 -7 -7 -7 -7 -7 -6 -6 -6 -6 -6 -6 -6 -6 -6 -6 -5 -6 -6 -6 -7 -8 -9 -9 -9 -9 -9 -9 -8 -8 -8
-10 -10 -10 -9 -9 -9 -9 -9 -8 -8 -8 -8 -8 -8 -8 -8 -8 -7 -7 -7 -7 -7 -7 -6 -6 -6 -6 -6 -6 -6 -6 -6 -6 -6 -7 -7 -8 -8 -9 -9 -9 -9 -9 -9 -9 -9 -8
-10 -10 -10 -10 -10 -10 -9 -9 -9 -9 -8 -8 -8 -8 -9 -9 -9 -8 -8 -7 -7 -7 -7 -7 -7 -6 -6 -6 -6 -6 -6 -6 -7 -6 -6 -7 -8 -9 -9 -9 -9 -9 -9 -9 -9 -8 -8
-11 -11 -10 -10 -10 -10 -10 -10 -9 -9 -9 -9 -9 -9 -9 -9 -9 -8 -8 -8 -8 -7 -8 -8 -8 -7 -7 -7 -6 -6 -6 -6 -6 -6 -7 -8 -9 -9 -9 -9 -9 -9 -8 -8 -9 -8 -9
-11 -11 -11 -11 -10 -10 -10 -10 -10 -10 -10 -9 -10 -10 -10 -10 -10 -9 -9 -9 -8 -8 -8 -9 -8 -8 -8 -7 -6 -6 -7 -7 -7 -6 -8 -8 -9 -9 -9 -9 -9 -8 -8 -9 -9 -9 -9
-12 -11 -11 -11 -11 -10 -10 -11 -11 -11 -10 -10 -10 -10 -10 -10 -10 -10 -9 -9 -8 -8 -8 -9 -9 -9 -8 -8 -7 -7 -7 -7 -7 -8 -7 -9 -9 -9 -9 -9 -9 -8 -9 -9 -9 -9 -9
-12 -12 -11 -11 -11 -11 -11 -11 -11 -11 -11 -11 -11 -11 -11 -10 -10 -10 -10 -9 -10 -9 -9 -9 -10 -9 -9 -8 -7 -8 -8 -8 -8 -8 -8 -9 -9 -9 -9 -9 -9 -9 -9 -9 -9 -8 -8
-12 -12 -12 -11 -11 -11 -11 -11 -11 -11 -11 -11 -12 -11 -11 -11 -11 -10 -10 -10 -10 -10 -10 -9 -10 -10 -9 -9 -8 -9 -9 -8 -8 -8 -8 -9 -9 -9 -9 -9 -9 -9 -9 -9 -9 -8 -8
-12 -12 -12 -12 -12 -12 -12 -11 -11 -12 -12 -12 -12 -12 -12 -11 -11 -11 -10 -10 -11 -11 -11 -10 -10 -10 -10 -9 -9 -9 -9 -9 -9 -8 -8 -9 -9 -9 -9 -9 -9 -9 -9 -9 -9 -9 -9
-12 -12 -12 -12 -12 -12 -12 -12 -12 -12 -12 -12 -12 -12 -12 -11 -11 -11 -11 -11 -11 -11 -11 -11 -11 -10 -10 -10 -10 -9 -9 -9 -9 -9 -9 -9 -9 -9 -9 -9 -9 -9 -9 -9 -9 -9 -9
-12 -12 -12 -12 -12 -12 -12 -12 -12 -12 -12 -12 -12 -12 -12 -11 -11 -11 -11 -11 -11 -11 -11 -11 -11 -11 -11 -10 -10 -10 -9 -9 -9 -9 -9 -9 -9 -9 -9 -9 -9 -9 -9 -9 -9 -9 -9
-12 -12 -12 -12 -12 -12 -12 -12 -12 -12 -12 -12 -12 -12 -11 -11 -11 -11 -11 -11 -11 -11 -11 -11 -11 -11 -11 -11 -10 -10 -10 -10 -10 -10 -9 -9 -9 -9 -9 -9 -9 -9 -9 -9 -9 -9 -9
-12 -12 -12 -12 -13 -13 -12 -12 -12 -12 -12 -12 -12 -12 -12 -11 -11 -11 -11 -11 -11 -11 -11 -12 -12 -12 -11 -11 -11 -10 -10 -10 -10 -10 -10 -10 -10 -10 -10 -10 -10 -10 -10 -10 -9 -9 -9
-12 -12 -12 -12 -12 -13 -12 -12 -13 -13 -12 -12 -12 -12 -12 -12 -11 -11 -11 -11 -11 -11 -11 -12 -12 -12 -11 -12 -11 -11 -11 -10 -10 -10 -10 -10 -9 -9 -9 -9 -10 -9 -9 -9 -9 -9 -9
-12 -12 -12 -12 -13 -13 -12 -12 -12 -13 -13 -12 -12 -12 -12 -12 -12 -12 -12 -12 -11 -11 -12 -12 -12 -12 -12 -12 -12 -11 -11 -10 -10 -10 -10 -10 -10 -9 -9 -10 -10 -10 -10 -10 -10 -10 -9
-12 -12 -12 -12 -12 -13 -13 -13 -12 -13 -13 -12 -12 -12 -12 -12 -12 -12 -12 -12 -12 -12 -12 -12 -12 -12 -12 -12 -12 -11 -11 -11 -11 -10 -11 -10 -10 -10 -10 -10 -10 -10 -10 -10 -10 -10 -10
-13 -12 -12 -12 -12 -12 -12 -13 -13 -13 -13 -13 -12 -12 -12 -11 -12 -12 -12 -12 -12 -12 -12 -12 -12 -12 -12 -12 -12 -12 -12 -11 -11 -11 -12 -11 -11 -11 -11 -11 -11 -11 -11 -11 -10 -10 -9
Height
5884 5885 5886 5886 5887 5888 5888 5890 5892 5893 5895 5897 5898 5900 5902 5903 5904 5906 5907 5909 5910 5911 5911 5911 5912 5913 5914 5914 5914 5914 5914 5914 5915 5917 5919 5922 5924 5928 5930 5932 5934 5933 5931 5929 5929 5928 5927
5880 5882 5883 5884 5885 5886 5887 5888 5889 5891 5893 5895 5897 5898 5899 5901 5903 5904 5905 5907 5908 5909 5910 5911 5911 5911 5912 5914 5914 5914 5914 5915 5916 5917 5919 5922 5925 5928 5930 5933 5934 5934 5932 5931 5930 5930 5930
5877 5878 5879 5880 5881 5882 5883 5885 5886 5888 5890 5891 5893 5895 5897 5898 5900 5902 5903 5904 5906 5907 5908 5909 5909 5910 5910 5912 5912 5913 5913 5914 5916 5918 5919 5922 5924 5928 5930 5932 5932 5933 5933 5932 5931 5932 5932
5873 5874 5875 5877 5878 5879 5880 5881 5882 5884 5885 5887 5889 5891 5893 5895 5897 5899 5900 5901 5903 5904 5905 5906 5907 5908 5908 5909 5910 5911 5912 5913 5915 5917 5919 5921 5924 5927 5929 5930 5931 5933 5933 5933 5933 5932 5932
5869 5870 5871 5872 5873 5875 5875 5876 5878 5879 5881 5883 5885 5887 5888 5890 5893 5895 5896 5898 5899 5900 5901 5903 5904 5905 5906 5907 5908 5910 5910 5912 5914 5916 5918 5921 5925 5927 5928 5928 5931 5932 5933 5933 5933 5932 5932
5864 5865 5866 5868 5869 5870 5871 5872 5873 5875 5876 5878 5880 5882 5883 5885 5887 5890 5892 5894 5895 5896 5897 5898 5900 5902 5903 5905 5906 5907 5908 5910 5912 5915 5918 5921 5923 5925 5927 5929 5930 5931 5932 5933 5933 5934 5932
5858 5859 5861 5862 5863 5865 5866 5867 5868 5870 5871 5872 5874 5876 5878 5879 5881 5884 5888 5890 5892 5892 5892 5894 5897 5897 5898 5901 5902 5904 5906 5908 5911 5913 5916 5919 5922 5924 5926 5928 5930 5931 5932 5933 5933 5933 5932
5853 5854 5855 5857 5858 5859 5860 5861 5863 5864 5865 5867 5868 5870 5872 5873 5876 5879 5882 5883 5884 5886 5887 5889 5891 5892 5893 5896 5898 5900 5903 5906 5908 5911 5914 5917 5919 5923 5925 5928 5930 5931 5931 5932 5932 5932 5931
5847 5848 5849 5850 5852 5853 5854 5855 5857 5858 5859 5861 5863 5864 5866 5868 5870 5873 5876 5877 5878 5880 5883 5885 5886 5887 5889 5892 5894 5897 5900 5903 5905 5908 5911 5913 5917 5920 5923 5927 5929 5930 5930 5931 5932 5931 5930
5842 5842 5844 5844 5845 5846 5847 5849 5850 5851 5852 5854 5856 5857 5860 5862 5866 5867 5870 5871 5873 5876 5878 5881 5881 5883 5885 5887 5890 5893 5896 5900 5902 5905 5908 5911 5912 5917 5921 5925 5928 5928 5929 5930 5930 5931 5929
5835 5836 5838 5838 5839 5840 5841 5841 5842 5843 5845 5847 5848 5850 5853 5856 5859 5862 5865 5866 5868 5872 5874 5876 5877 5879 5881 5884 5887 5890 5892 5896 5899 5902 5905 5908 5908 5914 5919 5924 5925 5927 5928 5929 5928 5928 5928
5829 5830 5832 5832 5833 5834 5834 5835 5836 5837 5838 5839 5841 5842 5846 5850 5852 5856 5858 5861 5864 5868 5868 5871 5872 5875 5877 5880 5883 5885 5889 5892 5895 5898 5901 5903 5906 5911 5919 5921 5924 5926 5927 5927 5926 5926 5927
5823 5824 5826 5827 5828 5828 5829 5829 5830 5830 5831 5832 5834 5836 5839 5843 5846 5849 5853 5857 5860 5860 5864 5866 5868 5871 5874 5876 5879 5882 5885 5888 5892 5896 5898 5900 5905 5911 5916 5919 5922 5924 5925 5925 5926 5924 5925
5817 5818 5820 5822 5823 5823 5824 5824 5823 5823 5823 5824 5828 5830 5833 5836 5839 5843 5847 5852 5854 5856 5858 5861 5864 5867 5871 5873 5876 5878 5881 5885 5889 5893 5896 5900 5906 5910 5914 5918 5921 5920 5923 5923 5922 5922 5923
5812 5814 5815 5816 5817 5818 5819 5819 5818 5818 5818 5819 5822 5824 5827 5830 5834 5837 5842 5846 5848 5851 5855 5857 5861 5864 5868 5870 5873 5876 5879 5882 5885 5890 5895 5900 5904 5907 5911 5915 5917 5919 5920 5922 5921 5921 5921
5808 5809 5810 5811 5812 5813 5814 5814 5814 5814 5814 5814 5816 5818 5821 5824 5828 5832 5836 5841 5843 5847 5851 5854 5858 5862 5865 5868 5871 5874 5876 5879 5882 5887 5892 5897 5901 5905 5909 5912 5915 5916 5919 5919 5919 5919 5918
5803 5804 5805 5805 5807 5808 5809 5809 5809 5810 5810 5810 5811 5813 5816 5819 5823 5827 5832 5836 5838 5843 5847 5851 5855 5858 5862 5866 5869 5872 5874 5878 5880 5884 5888 5893 5898 5903 5907 5909 5912 5914 5915 5917 5917 5917 5916
5798 5799 5800 5801 5802 5802 5803 5804 5804 5805 5805 5805 5806 5808 5811 5814 5818 5821 5826 5830 5833 5838 5844 5848 5853 5856 5860 5863 5867 5869 5872 5875 5879 5883 5887 5890 5895 5899 5904 5907 5909 5911 5913 5914 5914 5915 5914
5793 5794 5795 5796 5796 5797 5798 5798 5799 5799 5800 5800 5801 5802 5806 5809 5813 5817 5822 5826 5829 5833 5839 5845 5850 5853 5858 5861 5865 5867 5871 5874 5877 5881 5885 5889 5892 5897 5901 5905 5906 5908 5910 5911 5912 5911 5910
5788 5789 5790 5791 5792 5792 5793 5793 5793 5795 5795 5796 5796 5797 5801 5804 5809 5812 5817 5821 5825 5829 5835 5841 5846 5850 5856 5860 5863 5867 5870 5873 5876 5879 5883 5886 5890 5895 5899 5902 5904 5905 5907 5907 5908 5908 5906
5783 5784 5785 5787 5787 5788 5789 5789 5789 5790 5791 5791 5791 5793 5796 5800 5805 5809 5812 5816 5821 5826 5833 5838 5843 5849 5854 5858 5862 5865 5869 5872 5875 5878 5881 5884 5887 5891 5894 5897 5899 5900 5902 5903 5903 5902 5901
5778 5779 5780 5782 5783 5784 5784 5786 5785 5786 5786 5787 5787 5790 5793 5797 5801 5805 5808 5812 5817 5824 5830 5835 5840 5845 5850 5855 5860 5864 5867 5870 5873 5877 5879 5883 5886 5889 5891 5893 5894 5895 5896 5897 5897 5896 5895
5773 5774 5775 5777 5778 5779 5781 5781 5781 5782 5782 5783 5784 5786 5790 5794 5798 5802 5804 5809 5814 5820 5826 5831 5836 5842 5847 5851 5855 5860 5864 5867 5871 5874 5876 5879 5882 5885 5886 5888 5889 5890 5891 5891 5891 5890 5889
5767 5769 5771 5772 5773 5775 5776 5777 5777 5778 5778 5780 5781 5783 5786 5791 5794 5798 5802 5806 5811 5816 5822 5827 5832 5836 5842 5846 5850 5855 5859 5862 5865 5869 5871 5873 5876 5878 5879 5881 5881 5885 5885 5886 5885 5884 5883
5762 5764 5766 5768 5769 5770 5771 5772 5773 5774 5774 5776 5777 5779 5782 5786 5791 5795 5798 5802 5807 5812 5818 5823 5828 5831 5836 5840 5845 5849 5852 5857 5860 5863 5865 5867 5870 5872 5873 5875 5876 5877 5879 5879 5877 5879 5876
5756 5759 5761 5763 5764 5765 5767 5768 5769 5770 5771 5772 5774 5775 5778 5782 5786 5791 5795 5799 5803 5808 5814 5818 5823 5826 5832 5834 5840 5842 5846 5850 5854 5857 5860 5862 5863 5865 5866 5867 5868 5870 5871 5871 5871 5872 5869
5750 5753 5755 5758 5759 5761 5762 5764 5765 5766 5767 5768 5770 5772 5774 5778 5782 5787 5791 5795 5799 5804 5809 5814 5818 5823 5827 5830 5833 5837 5840 5842 5845 5847 5850 5852 5853 5855 5856 5857 5859 5861 5863 5863 5863 5864 5863
5744 5747 5750 5752 5754 5756 5758 5759 5761 5762 5763 5764 5766 5769 5771 5773 5778 5782 5786 5791 5795 5799 5803 5809 5814 5817 5821 5825 5828 5831 5833 5836 5838 5840 5842 5845 5846 5848 5849 5850 5852 5854 5855 5855 5854 5853 5854
5737 5740 5744 5746 5749 5751 5753 5754 5756 5757 5758 5759 5762 5765 5767 5769 5773 5778 5782 5786 5790 5795 5799 5803 5807 5811 5815 5818 5821 5824 5827 5830 5832 5834 5836 5839 5840 5842 5844 5845 5845 5846 5847 5847 5847 5847 5846
Wind_Speed
16 15 13 11 11 9 10 14 16 15 14 12 11 10 9 8 7 8 8 7 6 5 4 5 5 5 4 2 1 1 2 3 4 5 6 11 11 9 8 5 1 10 16 21 21 25 29
18 17 16 15 14 12 11 14 18 19 18 17 15 14 13 12 11 11 11 10 9 8 7 6 6 6 6 4 3 2 3 2 2 4 7 10 11 11 10 6 3 0 14 18 21 23 26
20 19 18 18 17 16 15 15 17 20 22 21 20 19 18 17 16 15 14 14 13 12 11 10 8 6 8 7 6 5 5 2 5 6 8 10 12 12 8 5 3 12 12 15 20 20 19
21 21 21 20 20 20 19 19 19 20 22 23 24 22 22 22 21 19 19 17 16 16 15 14 13 10 10 10 9 8 8 6 8 8 8 11 13 10 7 3 3 10 9 10 14 14 15
22 22 21 21 21 21 21 21 22 21 22 23 24 24 24 23 23 22 22 20 19 19 18 17 16 15 13 13 13 10 10 9 7 9 11 11 14 10 7 4 5 9 7 5 7 9 11
22 22 22 22 22 22 22 22 22 23 24 24 24 25 25 24 24 24 24 22 21 21 20 19 19 18 17 14 13 12 11 10 8 10 11 13 15 13 10 9 8 5 5 4 4 7 8
23 23 23 24 23 24 24 24 23 24 24 25 26 26 25 25 25 25 24 22 22 23 23 23 21 21 20 16 17 15 13 11 10 12 14 15 17 17 13 12 8 6 2 2 1 4 5
24 24 24 24 25 25 25 26 26 25 25 25 25 26 26 26 25 23 20 22 24 25 25 24 22 20 20 18 20 18 15 13 12 14 16 18 20 18 17 13 9 6 5 2 4 3 5
24 24 25 25 25 26 27 27 27 28 27 27 26 26 26 26 26 24 21 22 23 21 20 20 20 20 20 21 21 19 17 14 14 17 17 20 24 23 19 14 12 11 11 9 6 7 5
24 24 24 24 24 25 26 27 28 29 30 31 28 28 27 27 26 25 23 24 23 21 21 19 19 18 20 21 20 20 19 19 18 20 20 23 27 28 22 17 16 14 14 13 12 6 7
23 23 23 22 22 23 25 25 26 28 29 29 30 30 28 27 27 25 25 25 23 21 20 20 19 19 20 20 20 20 18 19 19 22 21 23 23 30 23 20 20 14 15 18 16 14 7
21 20 21 20 21 21 22 23 25 26 25 27 27 28 28 27 27 27 26 25 23 21 22 20 19 20 20 21 20 21 20 20 22 20 21 24 24 25 25 24 23 19 19 16 17 15 9
20 20 20 19 19 20 21 22 23 23 23 25 25 27 26 27 27 26 26 25 23 23 23 23 20 21 22 21 20 19 20 21 19 18 20 22 20 24 25 27 23 20 24 21 19 15 13
20 19 19 19 19 19 19 20 19 19 22 24 22 25 24 26 26 27 25 24 24 24 24 24 22 22 22 20 21 21 21 20 18 18 20 22 24 21 18 21 21 24 23 22 17 18 18
19 19 20 19 19 19 19 16 14 14 16 21 21 24 23 24 25 27 25 24 26 26 24 26 23 22 23 22 21 20 20 21 20 20 20 21 22 24 22 18 15 13 18 14 14 10 8
19 19 19 18 18 19 19 18 16 15 16 18 19 23 23 23 24 26 25 24 27 26 26 27 24 20 21 22 21 21 21 21 23 23 22 26 26 24 20 17 16 16 13 10 9 9 11
16 16 14 14 17 19 19 18 18 15 16 15 18 20 21 22 23 25 23 24 28 29 29 30 25 22 21 20 20 17 20 20 20 24 29 29 28 23 19 20 13 11 9 10 11 12 15
17 17 17 17 18 18 18 18 17 16 15 15 17 22 20 20 22 23 22 28 32 32 31 32 27 24 20 18 21 20 19 21 21 22 27 34 30 26 22 17 15 15 15 13 15 15 16
17 18 19 19 18 18 17 17 18 16 15 16 17 21 21 21 21 21 21 29 34 34 34 33 29 28 22 19 22 23 20 22 24 25 26 35 32 29 26 22 18 15 17 17 16 17 19
18 19 18 18 17 17 15 15 17 16 15 16 16 19 20 20 20 21 23 31 37 36 33 35 33 30 24 22 21 24 24 24 25 25 31 37 33 30 29 22 19 18 17 18 16 17 18
16 18 19 17 16 15 13 13 14 15 14 15 15 17 18 19 19 20 27 32 40 34 31 31 33 30 26 23 24 26 24 21 21 23 29 36 33 33 30 24 17 16 19 18 17 20 21
16 16 17 16 16 15 12 12 13 13 13 12 13 15 18 19 19 20 28 31 42 35 32 30 29 28 26 25 21 25 28 25 22 20 20 24 25 21 23 19 19 19 19 19 23 26 26
17 15 14 15 16 16 15 11 12 13 13 11 12 16 19 19 20 22 27 30 41 39 34 33 31 28 26 24 21 21 25 28 26 24 23 22 21 20 21 22 22 24 20 23 25 27 30
17 15 14 15 14 15 16 16 16 14 13 11 13 16 19 20 21 22 25 28 33 39 37 33 32 30 28 27 28 27 24 23 23 23 21 20 18 19 19 22 28 24 25 27 31 31 31
19 17 16 14 14 14 13 12 14 13 13 13 12 16 20 21 22 22 24 27 29 31 35 35 31 29 30 29 29 30 27 27 26 26 25 17 21 26 29 29 30 32 32 29 27 28 24
21 19 18 15 14 14 13 11 11 12 13 14 12 15 20 22 23 23 23 26 28 29 30 32 31 30 31 24 19 21 25 29 29 29 28 24 30 28 29 34 30 28 26 28 34 27 25
24 21 19 17 15 14 14 14 11 12 13 14 14 13 19 22 24 25 24 25 27 28 29 32 32 30 25 24 27 30 32 32 32 32 27 26 28 28 28 30 34 37 35 36 31 27 25
26 25 21 19 18 16 15 15 14 13 13 15 16 13 15 21 24 26 27 26 26 28 27 28 30 30 30 28 27 27 26 25 24 23 20 20 23 24 24 25 27 26 25 26 26 25 24
30 27 25 21 20 18 17 15 16 15 14 15 17 15 14 18 22 25 28 28 28 26 26 25 24 25 26 28 28 26 26 24 25 22 21 21 21 22 21 20 21 24 26 25 24 24 29
Wind_Direction
249 251 252 254 264 269 255 219 212 214 214 217 219 223 226 224 226 228 230 235 241 259 273 294 282 273 303 348 330 282 234 201 206 212 193 195 207 210 200 189 252 118 109 92 74 67 65
247 250 250 250 251 255 255 238 226 224 225 226 231 232 232 235 235 240 242 248 254 262 270 280 286 264 258 281 279 265 240 202 133 155 181 194 190 172 182 213 245 333 112 98 76 69 71
246 247 248 249 249 249 250 244 236 235 234 233 232 237 240 240 243 244 249 253 258 262 268 270 277 276 253 252 253 238 239 188 136 165 182 184 181 175 192 220 278 142 113 98 87 71 63
249 247 247 249 251 250 248 247 245 244 242 242 242 240 244 247 245 245 251 253 256 260 263 265 267 269 256 249 248 246 235 203 166 170 182 188 187 190 186 227 182 155 139 108 101 85 69
252 251 252 252 253 253 253 253 251 249 248 248 248 247 246 248 250 247 251 252 254 258 258 257 259 265 267 246 244 248 243 228 191 179 184 186 185 185 195 176 175 173 137 137 70 82 74
251 254 255 256 256 256 256 255 255 254 253 252 251 250 249 248 250 252 252 251 253 254 253 251 253 262 268 250 244 243 248 242 206 194 181 192 180 185 204 194 184 170 122 102 43 61 84
252 253 256 258 258 258 259 257 255 253 253 253 253 252 251 249 249 249 252 252 249 250 252 254 257 261 255 240 232 234 236 239 220 207 185 195 185 194 193 185 184 154 198 117 11 25 33
252 254 256 257 259 260 260 260 259 258 255 254 253 252 250 250 249 248 246 248 248 249 251 253 251 247 244 235 231 232 227 229 220 210 191 188 188 204 188 189 192 196 225 228 288 329 6
253 254 256 258 260 262 262 262 261 261 259 257 254 252 251 250 249 247 243 242 245 245 248 251 248 241 233 230 230 228 224 216 209 210 199 194 184 198 185 192 195 214 229 230 280 299 357
258 258 260 261 263 265 266 265 264 261 259 259 255 254 252 250 250 246 242 242 243 245 248 250 241 225 222 226 227 227 227 218 207 210 206 202 189 191 188 192 202 225 239 247 269 300 354
258 260 260 261 265 269 270 270 268 262 259 258 255 252 250 248 248 247 241 240 241 240 243 239 230 226 224 223 218 216 215 215 209 209 211 206 210 190 185 194 203 225 243 253 267 276 319
256 257 261 265 268 270 273 273 269 263 258 256 253 252 247 244 245 244 242 239 240 236 236 232 225 224 222 219 215 218 216 211 210 211 211 210 212 193 184 199 212 222 246 257 259 280 303
259 260 261 262 264 270 273 274 272 268 262 256 250 250 247 242 240 239 240 238 236 233 228 229 221 218 215 211 206 208 212 214 213 208 213 215 211 193 190 204 219 240 244 255 268 286 304
261 259 257 258 263 269 275 279 279 277 262 257 248 248 246 240 235 235 234 234 230 231 226 227 220 220 216 210 207 206 207 207 207 203 209 205 190 194 185 204 226 230 237 252 275 288 296
256 255 256 257 263 267 269 272 285 289 273 258 246 244 241 239 233 231 230 226 227 227 221 222 220 215 219 212 204 203 203 194 203 200 196 188 176 169 177 191 207 213 227 240 256 293 302
255 254 255 257 261 262 264 266 277 286 276 263 246 242 238 236 232 230 227 216 220 221 214 218 219 215 217 216 208 202 196 196 197 185 191 174 173 176 184 201 218 228 220 234 280 291 303
252 252 254 261 263 260 261 264 271 275 272 268 254 241 236 235 231 229 224 209 214 216 210 210 214 217 217 215 202 198 191 189 195 192 187 177 184 188 199 215 218 215 226 246 265 268 283
250 248 257 268 266 262 260 263 267 269 272 275 264 242 233 229 226 225 217 204 212 212 211 211 213 213 218 214 205 193 193 190 188 196 201 184 187 193 202 214 219 221 232 246 260 279 292
252 255 260 262 264 266 263 259 264 262 270 276 270 239 229 226 224 221 213 206 207 213 208 207 205 215 213 216 206 193 191 194 190 186 193 191 193 195 208 214 224 230 239 251 271 295 303
256 258 257 259 261 265 264 264 259 256 267 277 265 235 224 224 219 213 199 202 205 213 212 206 207 211 211 210 210 194 190 191 191 194 193 196 200 210 218 227 237 242 254 262 281 302 302
255 260 252 257 258 262 263 264 256 260 266 275 257 231 219 217 212 206 197 200 201 204 206 212 211 215 215 216 210 198 192 192 198 200 202 205 211 217 227 232 242 248 256 269 290 296 304
254 264 247 251 257 258 261 258 261 262 263 264 249 226 215 211 206 201 201 200 197 200 198 207 210 217 218 222 222 207 196 195 199 208 216 217 222 235 241 240 250 253 258 274 284 291 299
251 258 252 251 255 252 253 256 273 267 254 252 240 222 214 207 203 202 204 201 199 201 199 202 207 213 215 217 220 220 212 214 212 213 214 221 229 237 246 252 261 261 275 273 284 291 300
249 251 252 248 252 251 253 258 270 264 248 249 235 223 217 210 202 203 207 206 201 207 212 211 215 210 210 211 210 215 226 226 228 234 232 230 243 247 263 265 267 279 277 278 279 292 294
242 244 247 249 249 250 253 262 260 254 247 243 238 227 218 213 205 203 206 208 205 206 211 214 214 216 225 222 217 218 217 232 238 243 248 244 252 258 260 259 268 268 272 281 282 289 287
239 242 241 245 249 251 245 253 259 254 249 240 241 235 221 213 209 207 206 210 207 208 213 210 216 234 238 212 211 236 247 255 259 266 271 261 272 266 261 260 263 270 271 274 285 279 266
237 242 242 242 245 253 251 242 253 257 252 240 241 238 225 216 210 209 208 209 214 212 213 215 213 213 214 226 247 255 257 261 264 269 268 264 260 258 253 254 257 263 271 273 271 263 261
236 240 243 242 243 249 252 246 248 258 261 243 234 234 229 221 215 209 211 212 214 215 217 220 220 221 227 231 235 240 245 250 253 255 252 246 242 244 246 248 252 255 258 261 261 268 271
236 240 243 247 245 249 248 250 247 255 258 241 232 230 231 227 222 215 212 214 217 216 215 216 223 224 227 231 234 238 242 245 243 238 233 239 243 247 248 251 253 256 260 261 269 277 280